Location: Newark
(48.2543°N, 0.4968°W)
Time: 09:28:09
(UTC+00:00)

ISS - Visible Passes

Search period start: 20 July 2019 00:00
Search period end: 30 July 2019 00:00
Orbit: 409 x 418 km, 51.6° (Epoch: 20 July)

Date Brightness Start Highest point End Pass type
(mag) Time Alt. Az. Time Alt. Az. Time Alt. Az.
20 Jul -3.8 01:03:28 10° WNW 01:06:49 80° NNE 01:09:06 19° ESE visible
20 Jul -1.7 02:40:32 10° W 02:45:51 10° SSE 02:45:54 10° SSE visible
20 Jul -3.9 21:00:16 10° WSW 21:03:37 81° SSE 21:06:57 10° ENE visible
20 Jul -2.7 22:37:15 10° W 22:40:28 45° N 22:43:42 10° ENE visible
21 Jul -3.3 00:14:10 10° WNW 00:17:28 61° NNE 00:18:01 51° ENE visible
21 Jul -2.9 21:47:48 10° W 21:51:04 51° N 21:54:20 10° ENE visible
21 Jul -3.0 23:24:49 10° WNW 23:28:05 51° N 23:29:24 30° ENE visible
22 Jul -1.4 01:01:33 10° WNW 01:02:10 14° WNW 01:02:10 14° WNW visible
22 Jul -3.2 20:58:21 10° W 21:01:40 61° NNW 21:04:59 10° ENE visible
22 Jul -2.7 22:35:26 10° WNW 22:38:40 45° N 22:41:10 15° ENE visible
23 Jul -2.3 00:12:11 10° WNW 00:13:58 29° WNW 00:13:58 29° WNW visible
23 Jul -2.6 21:45:59 10° WNW 21:49:13 44° N 21:52:27 10° ENE visible
23 Jul -3.5 23:22:50 10° WNW 23:25:55 68° NNW 23:25:55 68° NNW visible
24 Jul -2.7 20:56:32 10° W 20:59:47 46° N 21:03:01 10° ENE visible
24 Jul -3.3 22:33:28 10° WNW 22:36:46 58° NNE 22:37:56 35° ENE visible
25 Jul -1.2 00:10:15 10° WNW 00:10:44 13° W 00:10:44 13° W visible
25 Jul -2.9 21:44:04 10° WNW 21:47:21 49° N 21:50:01 14° E visible
25 Jul -2.5 23:20:48 10° WNW 23:22:49 32° W 23:22:49 32° W visible
26 Jul -2.7 20:54:37 10° WNW 20:57:52 45° N 21:01:06 10° ENE visible
26 Jul -4.0 22:31:25 10° WNW 22:34:46 88° SSW 22:34:56 80° ESE visible
27 Jul -3.6 21:42:00 10° WNW 21:45:21 69° NNE 21:47:04 26° E visible
27 Jul -1.4 23:18:54 10° W 23:19:53 16° W 23:19:53 16° W visible
28 Jul -3.2 20:52:36 10° WNW 20:55:53 55° NNE 20:59:11 10° E visible
28 Jul -3.0 22:29:21 10° WNW 22:32:03 41° WSW 22:32:03 41° WSW visible
29 Jul -3.8 21:39:53 10° WNW 21:43:13 69° SSW 21:44:15 40° SE visible
